TimeEDT,TemperatureF,Dew PointF,Humidity,Sea Level PressureIn,VisibilityMPH,Wind Direction,Wind SpeedMPH,Gust SpeedMPH,PrecipitationIn,Events,Conditions,WindDirDegrees,DateUTC
12:53 AM,69.1,55.9,63,29.89,10.0,SW,5.8,-,N/A,,Clear,220,2013-04-11 04:53:00
1:53 AM,69.1,55.0,61,29.88,10.0,Calm,Calm,-,N/A,,Clear,0,2013-04-11 05:53:00
2:53 AM,66.0,55.0,68,29.87,10.0,Calm,Calm,-,N/A,,Clear,0,2013-04-11 06:53:00
3:53 AM,68.0,55.9,65,29.86,10.0,South,5.8,-,N/A,,Clear,180,2013-04-11 07:53:00
4:53 AM,66.9,55.9,68,29.86,10.0,South,4.6,-,N/A,,Clear,170,2013-04-11 08:53:00
5:53 AM,66.0,55.9,70,29.87,10.0,South,3.5,-,N/A,,Mostly Cloudy,180,2013-04-11 09:53:00
6:53 AM,62.1,55.9,80,29.86,10.0,Calm,Calm,-,N/A,,Mostly Cloudy,0,2013-04-11 10:53:00
7:53 AM,63.0,55.9,78,29.88,10.0,Calm,Calm,-,N/A,,Mostly Cloudy,0,2013-04-11 11:53:00
8:53 AM,66.0,57.0,73,29.87,10.0,SE,6.9,-,N/A,,Mostly Cloudy,140,2013-04-11 12:53:00
9:53 AM,69.1,57.9,68,29.87,10.0,South,6.9,-,N/A,,Mostly Cloudy,180,2013-04-11 13:53:00
10:53 AM,73.0,59.0,61,29.86,10.0,SW,12.7,-,N/A,,Mostly Cloudy,220,2013-04-11 14:53:00
11:53 AM,73.9,60.1,62,29.85,10.0,South,12.7,27.6,N/A,,Mostly Cloudy,170,2013-04-11 15:53:00
12:53 PM,75.2,60.8,61,29.84,10.0,South,15.0,24.2,N/A,,Mostly Cloudy,180,2013-04-11 16:53:00
1:53 PM,77.0,61.0,58,29.78,10.0,South,12.7,21.9,N/A,,Overcast,180,2013-04-11 17:53:00
2:53 PM,79.0,62.1,56,29.73,10.0,South,16.1,24.2,N/A,,Overcast,170,2013-04-11 18:53:00
3:53 PM,79.0,62.1,56,29.67,10.0,SE,11.5,17.3,N/A,,Overcast,130,2013-04-11 19:53:00
4:53 PM,77.0,63.0,62,29.66,10.0,South,6.9,19.6,N/A,,Overcast,170,2013-04-11 20:53:00
5:53 PM,73.9,64.9,73,29.63,10.0,South,6.9,-,0.00,Rain,Light Rain,180,2013-04-11 21:53:00
6:02 PM,73.4,64.4,73,29.65,10.0,South,6.9,-,0.00,Thunderstorm,Thunderstorm,170,2013-04-11 22:02:00
6:29 PM,73.4,64.4,73,29.65,10.0,South,6.9,-,0.00,,Overcast,190,2013-04-11 22:29:00
6:37 PM,73.4,64.4,73,29.66,10.0,South,8.1,-,0.00,Rain-Thunderstorm,Light Thunderstorms and Rain,190,2013-04-11 22:37:00
6:53 PM,71.1,66.0,84,29.68,1.5,SW,12.7,18.4,0.03,Rain-Thunderstorm,Heavy Thunderstorms and Rain,230,2013-04-11 22:53:00
6:58 PM,69.8,66.2,88,29.68,1.0,SW,20.7,29.9,0.09,Rain-Thunderstorm,Heavy Thunderstorms and Rain,220,2013-04-11 22:58:00
7:03 PM,69.8,60.8,73,29.69,1.8,South,23.0,47.2,0.21,Rain,Heavy Rain,180,2013-04-11 23:03:00
7:08 PM,66.2,60.8,83,29.67,0.5,SW,29.9,48.3,0.30,Fog-Rain-Thunderstorm,Heavy Thunderstorms and Rain,220,2013-04-11 23:08:00
7:16 PM,68.0,60.8,78,29.64,7.0,SSE,19.6,47.2,0.46,Rain-Thunderstorm,Heavy Thunderstorms and Rain,150,2013-04-11 23:16:00
7:26 PM,66.2,60.8,83,29.64,10.0,WSW,5.8,27.6,0.50,Rain-Thunderstorm,Light Thunderstorms and Rain,240,2013-04-11 23:26:00
7:46 PM,66.2,62.6,88,29.65,10.0,WSW,5.8,-,0.50,Rain,Light Rain,250,2013-04-11 23:46:00
7:53 PM,66.0,63.0,90,29.65,7.0,West,6.9,-,0.50,Rain,Light Rain,260,2013-04-11 23:53:00
8:00 PM,66.2,62.6,88,29.68,4.0,West,9.2,-,0.00,Rain-Thunderstorm,Light Thunderstorms and Rain,270,2013-04-12 00:00:00
8:07 PM,66.2,64.4,94,29.70,1.5,SW,9.2,-,N/A,Rain-Thunderstorm,Heavy Thunderstorms and Rain,220,2013-04-12 00:07:00
8:31 PM,64.4,64.4,100,29.71,1.8,SW,5.8,-,0.21,Rain-Thunderstorm,Thunderstorms and Rain,220,2013-04-12 00:31:00
8:44 PM,64.4,64.4,100,29.71,3.0,Calm,Calm,-,0.27,Rain-Thunderstorm,Heavy Thunderstorms and Rain,0,2013-04-12 00:44:00
8:53 PM,64.9,63.0,93,29.69,3.0,NNW,5.8,-,0.34,Rain-Thunderstorm,Heavy Thunderstorms and Rain,330,2013-04-12 00:53:00
9:27 PM,64.4,62.6,94,29.68,4.0,NE,4.6,-,0.12,Rain,Heavy Rain,50,2013-04-12 01:27:00
9:33 PM,64.4,62.6,94,29.68,4.0,ESE,4.6,-,0.15,Rain-Thunderstorm,Thunderstorms and Rain,110,2013-04-12 01:33:00
9:53 PM,64.9,64.0,97,29.69,3.0,Calm,Calm,-,0.22,Rain-Thunderstorm,Thunderstorms and Rain,0,2013-04-12 01:53:00
10:02 PM,64.4,64.4,100,29.70,4.0,Calm,Calm,-,0.03,Rain,Rain,0,2013-04-12 02:02:00
10:53 PM,64.0,63.0,96,29.65,4.0,SE,9.2,-,0.15,Rain,Rain,130,2013-04-12 02:53:00
11:53 PM,64.9,62.1,90,29.61,8.0,South,10.4,19.6,0.02,,Overcast,190,2013-04-12 03:53:00